Regional Weather Roundup
Issued by NWS

Home | Current Version | Previous Version | Text Only | Print | Product List | Glossary On
Versions: 1 2 3 4 5 6 7 8 9 10 11 12 13 14 15 16 17 18 19 20 21 22 23 24 25 26 27 28 29 30 31 32 33 34 35 36 37 38 39 40 41 42 43 44 45 46 47 48 49 50
069
ASUS42 KFFC 260103
RWRGA
WEATHER ROUNDUP FOR GEORGIA
NATIONAL WEATHER SERVICE PEACHTREE CITY GA
900 PM EDT MON SEP 25 2017

NOTE: "FAIR" INDICATES FEW OR NO CLOUDS BELOW 12,000 FEET WITH NO
SIGNIFICANT WEATHER AND/OR OBSTRUCTIONS TO VISIBILITY.

* = USE WITH CAUTION. THE STATIONS MARKED WITH AN ASTERISK MAY NOT
REPORT WEATHER SUCH AS PRECIPITATION, FOG, OR THUNDER AND ARE NOT
QUALITY CONTROLLED BY NWS.

THE REMARK "TC" DENOTES TEMPERATURE READING IN DEGREES CELSIUS.

GAZ001>058-260200-
NORTH GEORGIA

CITY           SKY/WX    TMP DP  RH WIND       PRES   REMARKS
ATLANTA        CLEAR     79  61  53 E6        29.96R
ATHENS         CLEAR     71  65  81 CALM      29.95R
CHAMBLEE       CLEAR     70  63  78 CALM      29.96R
PEACHTREE CITY CLEAR     69  66  90 CALM      29.95R
ROME           CLEAR     72  68  87 CALM      29.94R
WEST ATLANTA   CLEAR     71  65  81 CALM      29.95R
CARTERSVILLE   CLEAR     68  66  93 CALM      29.96R


CITY           SKY/WX    TMP DP  RH WIND       PRES   REMARKS
DALTON*        CLEAR     70  64  83 CALM      29.96S
LAWRENCEVILLE* CLEAR     70  64  83 CALM      29.97R
MARIETTA       CLEAR     72  62  71 CALM      29.96R
KENNESAW*      CLEAR     74  64  71 CALM      29.97R
CANTON*        CLEAR     73  64  73 CALM      29.99R
$$

GAZ059>098-102>109-260200-
CENTRAL GEORGIA

CITY           SKY/WX    TMP DP  RH WIND       PRES   REMARKS
AUGUSTA-BUSH   CLEAR     75  64  68 NE3       29.88S
AUGUSTA-DANIEL PTCLDY    82  64  54 NE5       29.92R
COLUMBUS       CLEAR     81  62  52 E5        29.91R
MACON          CLEAR     71  66  84 CALM      29.92R


CITY           SKY/WX    TMP DP  RH WIND       PRES   REMARKS
LAGRANGE*      CLEAR     71  69  95 CALM      29.94S
SYLVANIA*      CLEAR     72  70  93 CALM      29.90R
MILLEDGEVILLE* CLEAR     73  68  83 CALM      29.91S
$$

GAZ099>101-110>166-260200-
SOUTH GEORGIA

CITY           SKY/WX    TMP DP  RH WIND       PRES   REMARKS
SAVANNAH       CLEAR     77  68  73 NE7       29.88R
VALDOSTA       CLEAR     73  67  81 CALM      29.88R
ALMA           CLEAR     75  66  73 N3        29.88R
ST SIMONS      CLEAR     78  72  81 N5        29.87R
FT STEWART     CLEAR     74  68  81 NE3       29.86R
ALBANY         CLEAR     79  63  57 NE5       29.91R
MOODY AFB      CLEAR     76  68  74 N5        29.88R
BRUNSWICK      CLEAR     72  68  88 CALM      29.88R


CITY           SKY/WX    TMP DP  RH WIND       PRES   REMARKS
BAINBRIDGE*    CLEAR     77  73  88 CALM      29.88R
MOULTRIE*      CLEAR     77  68  73 CALM      29.90R
VIDALIA*       CLEAR     73  66  78 CALM      29.89S
WAYCROSS*      CLEAR     74  65  73 CALM      29.88R
DOUGLAS*       CLEAR     77  63  61 N5        29.91R
$$




USA.gov is the U.S. government's official web portal to all federal, state and local government web resources and services.